Weather History for Shepherd Bay, NU

Change the Weather History Date:

Thursday, February 7, 2013

  Actual Average Record
Temperature  
Mean Temperature -38 °F -  
Max Temperature -29 °F - - ()
Min Temperature -47 °F - - ()
Degree Days  
Heating Degree Days 103    
Moisture  
Dew Point -    
Average Humidity    
Maximum Humidity    
Minimum Humidity    
Precipitation  
Precipitation 0.00 in - - ()
Sea Level Pressure  
Sea Level Pressure 29.90 in    
Wind  
Wind Speed 6 mph ()    
Max Wind Speed 9 mph    
Max Gust Speed -    
Visibility 6.1 miles    
Events Snow    
T = Trace of Precipitation, MM = Missing Value Source: Averaged Metar Reports

Daily Weather History Graph

Daily Weather History Graph

Search for Another Location

Airport:

Trip Planner

Search our weather history database for the weather conditions in past years. The results will help you decide how hot, cold, wet, or windy it might be!

Date:

Astronomy

Feb. 07, 2013 Rise Set
Actual Time 9:11 AM CST 3:45 PM CST
Civil Twilight 8:01 AM CST 4:55 PM CST
Nautical Twilight 6:51 AM CST 6:05 PM CST
Astronomical Twilight 5:44 AM CST 7:12 PM CST
Moon 8:07 AM CST (2/7) 11:59 AM CST (2/7)
Length of Visible Light 8h 53m
Length of Day
6h 33m
Waning Crescent, 9% of the Moon is Illuminated
Feb 7
Waning Crescent
Feb 10
New
Feb 17
First Quarter
Feb 25
Full
Mar 4
Last Quarter

Hourly Weather History & Observations

Time (CST) Temp. Windchill Dew Point Humidity Pressure Visibility Wind Dir Wind Speed Gust Speed Precip Events Conditions
12:00 AM -45 °F - - % 30.00 in 9 mi SSE 5.8 mph - -  
12:00 AM -45.4 °F -67.6 °F - N/A% 30.00 in 9.0 mi South 6.9 mph - N/A   Unknown
1:00 AM -45.4 °F -69.5 °F - N/A% 30.01 in 9.0 mi South 8.1 mph - N/A   Unknown
2:00 AM -47.2 °F -69.8 °F - N/A% 30.00 in 9.0 mi SSE 6.9 mph - N/A   Unknown
3:00 AM -47 °F - - % 30.00 in 9 mi SSE 6.9 mph - -  
3:00 AM -47.2 °F -69.8 °F - N/A% 30.00 in 9.0 mi SE 6.9 mph - N/A   Unknown
4:00 AM -47.2 °F -71.7 °F - N/A% 29.99 in 9.0 mi SSE 8.1 mph - N/A   Unknown
5:00 AM -47.2 °F -71.7 °F - N/A% 29.98 in 9.0 mi SE 8.1 mph - N/A   Unknown
6:00 AM -47 °F - - % 29.96 in 9 mi ESE 9.2 mph - -  
7:00 AM -47.2 °F -73.4 °F - N/A% 29.96 in 9.0 mi SE 9.2 mph - N/A   Unknown
8:00 AM -43.6 °F -68.9 °F - N/A% 29.95 in 9.0 mi SE 9.2 mph - N/A   Unknown
9:00 AM -44 °F - - % 29.94 in 9 mi ESE 9.2 mph - -  
9:00 AM -43.6 °F -68.9 °F - N/A% 29.94 in 9.0 mi ESE 9.2 mph - N/A   Unknown
10:00 AM -41.8 °F -65.1 °F - N/A% 29.93 in 9.0 mi SE 8.1 mph - N/A   Unknown
11:00 AM -38.2 °F -56.9 °F - N/A% 29.92 in 9.0 mi SE 5.8 mph - N/A   Unknown
12:00 PM -38 °F - - % 29.91 in 9 mi ESE 8.1 mph - -  
12:00 PM -38.2 °F -60.7 °F - N/A% 29.91 in 9.0 mi ESE 8.1 mph - N/A   Unknown
1:00 PM -36.4 °F -56.8 °F - N/A% 29.90 in 9.0 mi SE 6.9 mph - N/A   Unknown
2:00 PM -34.6 °F -52.6 °F - N/A% 29.88 in 9.0 mi East 5.8 mph - N/A   Unknown
2:20 PM -32.8 °F -50.5 °F - N/A% 29.85 in 2.8 mi East 5.8 mph - N/A   Unknown
3:00 PM -32 °F - - % 29.88 in 2 mi East 5.8 mph - -  
3:00 PM -32.8 °F -50.5 °F - N/A% 29.88 in 2.0 mi East 5.8 mph - N/A   Unknown
3:03 PM -32.8 °F -50.5 °F - N/A% 29.85 in 1.5 mi East 5.8 mph - N/A   Unknown
3:14 PM -31.0 °F -48.4 °F - N/A% 29.85 in 2.5 mi East 5.8 mph - N/A   Unknown
3:24 PM -31.0 °F -46.1 °F - N/A% 29.86 in 3.0 mi ESE 4.6 mph - N/A   Unknown
3:25 PM -31.0 °F -46.1 °F - N/A% 29.86 in 5.0 mi ESE 4.6 mph - N/A   Unknown
3:31 PM -31.0 °F -43.3 °F - N/A% 29.86 in 2.8 mi ESE 3.5 mph - N/A   Unknown
3:49 PM -31.0 °F -43.3 °F - N/A% 29.86 in 5.0 mi SE 3.5 mph - N/A   Unknown
4:00 PM -31.0 °F - - N/A% 29.89 in 9.0 mi SSE 2.3 mph - N/A   Unknown
4:13 PM -31.0 °F - - N/A% 29.86 in 2.5 mi SSE 2.3 mph - N/A   Unknown
4:17 PM -31.0 °F -43.3 °F - N/A% 29.85 in 1.6 mi South 3.5 mph - N/A Snow Light Snow
4:19 PM -31.0 °F -43.3 °F - N/A% 29.85 in 1.4 mi South 3.5 mph - N/A Snow Light Snow
4:20 PM -31.0 °F -43.3 °F - N/A% 29.85 in 1.4 mi South 3.5 mph - N/A Snow Light Snow
4:30 PM -31.0 °F - - N/A% 29.85 in 3.0 mi Calm Calm - N/A Snow Light Snow
4:33 PM -29.2 °F - - N/A% 29.85 in 7.0 mi Calm Calm - N/A   Unknown
5:00 PM -31.0 °F - - N/A% 29.88 in 6.0 mi Calm Calm - N/A   Unknown
5:06 PM -31.0 °F - - N/A% 29.85 in 3.0 mi Calm Calm - N/A   Unknown
5:49 PM -29.2 °F -44.0 °F - N/A% 29.85 in 3.0 mi NNW 4.6 mph - N/A   Unknown
6:00 PM -30 °F - - % 29.88 in 3 mi NNW 4.6 mph - -  
6:00 PM -29.2 °F -44.0 °F - N/A% 29.88 in 3.5 mi NW 4.6 mph - N/A   Unknown
6:41 PM -29.2 °F -44.0 °F - N/A% 29.84 in 4.0 mi NW 4.6 mph - N/A   Unknown
6:46 PM -29.2 °F -46.2 °F - N/A% 29.84 in 4.0 mi NW 5.8 mph - N/A   Unknown
7:00 PM -29.2 °F -44.0 °F - N/A% 29.88 in 3.5 mi WNW 4.6 mph - N/A   Unknown
8:00 PM -29.2 °F -48.1 °F - N/A% 29.88 in 9.0 mi WNW 6.9 mph - N/A   Unknown
9:00 PM -30 °F - - % 29.88 in 6 mi WNW 5.8 mph - -  
9:00 PM -29.2 °F -48.1 °F - N/A% 29.88 in 6.0 mi WNW 6.9 mph - N/A   Unknown
10:00 PM -31.0 °F -53.4 °F - N/A% 29.87 in 7.0 mi West 9.2 mph - N/A   Unknown
11:00 PM -31.0 °F -48.4 °F - N/A% 29.87 in 9.0 mi West 5.8 mph - N/A   Unknown